Zurück zum Katalog

STARLINK-36979

AktivKommunikationVLEO
NORAD 67996·PAYLOAD·🇺🇸 United States

Gestartet Feb 27, 2026 von Vandenberg Space Force Base

Loading…

Nächste Überflüge (nächste 24 Stunden)

TLE

AktuellSource: CelesTrak SupGP

Epoche: Sep 14, 2026, 23:02 UTC

1 67996C 26039L   26257.96020833  .00046889  00000+0  16981-2 0  2578
2 67996  43.0041  59.9715 0001755 277.9325 330.0072 15.27558483    14

Verfolge STARLINK-36979 in Echtzeit mit AllMySat

Download on the App Store